This demonstration page uses our WeatherBlox Daily Observations layout. Learn more.

Left ArrowRight Arrow

Hourly Observations for July 5, 2022

Temp ( °F °C ) Dew Point ( °F °C ) Humidity (%) Winds ( mph kmh ) Pressure ( in mb ) Visibility ( mi km ) Precip ( " mm )
12:53 am 00:53 Clear 75 23.9 66 18.9 74 74 Calm 30.02 1017 10 16 0.00 0.00
1:53 am 01:53 Clear 74 23.3 67 19.4 79 79 Calm 30.01 1016 10 16 0.00 0.00
2:53 am 02:53 Clear 74 23.3 67 19.4 79 79 Calm 29.98 1015 10 16 0.00 0.00
3:53 am 03:53 Clear 74 23.3 67 19.4 79 79 Calm 29.98 1015 10 16 0.00 0.00
4:53 am 04:53 Clear 72 22.2 68 20 87 87 Calm 29.99 1016 10 16 0.00 0.00
5:53 am 05:53 Clear 73 22.8 68 20 84 84 Calm 30.00 1016 10 16 0.00 0.00
6:53 am 06:53 Sunny 73 22.8 69 20.6 87 87 Calm 30.02 1017 10 16 0.00 0.00
7:53 am 07:53 Cloudy 77 25 69 20.6 77 77 NE 7 11 30.03 1017 10 16 0.00 0.00
8:53 am 08:53 Cloudy 78 25.6 65 18.3 64 64 ENE 5 7 30.03 1017 10 16 0.00 0.00
9:53 am 09:53 Partly Cloudy 82 27.8 66 18.9 58 58 VRB 3 6 30.01 1016 10 16 0.00 0.00
10:53 am 10:53 Sunny 86 30 69 20.6 57 57 VRB 3 6 30.01 1016 10 16 0.00 0.00
11:53 am 11:53 Mostly Sunny 89 31.7 72 22.2 57 57 VRB 5 7 30.01 1016 10 16 0.00 0.00
12:37 pm 12:37 Mostly Cloudy with Thunderstorms 87 30.6 71 21.7 59 59 NNE 15 24 30.00 1016 10 16 0.00 0.00
12:53 pm 12:53 Mostly Cloudy with Thunderstorms 81 27.2 71 21.7 72 72 E 17 28 30.01 1016 10 16 0.00 0.00
12:57 pm 12:57 Cloudy with Nearby Thunderstorms 81 27.2 70 21.1 69 69 ENE 14 22 30.01 1016 10 16 0.00 0.00
1:05 pm 13:05 Cloudy with Thunderstorms 80 26.7 71 21.7 74 74 E 14 22 30.01 1016 10 16 0.00 0.00
1:20 pm 13:20 Mostly Cloudy with Nearby Thunderstorms 80 26.7 70 21.1 71 71 E 16 26 30.00 1016 10 16 0.00 0.00
1:36 pm 13:36 Mostly Sunny 84 28.9 71 21.7 65 65 E 15 24 30.00 1016 10 16 0.00 0.00
1:53 pm 13:53 Mostly Cloudy with Strong Thunderstorms 78 25.6 71 21.7 79 79 E 7 11 30.02 1017 10 16 0.05 1.27
2:40 pm 14:40 Partly Cloudy with Nearby Thunderstorms 77 25 72 22.2 85 85 VRB 5 7 29.96 1015 10 16 0.02 0.51
2:53 pm 14:53 Sunny 78 25.6 73 22.8 85 85 VRB 3 6 29.96 1014 10 16 0.02 0.51
3:53 pm 15:53 Sunny 85 29.4 74 23.3 70 70 VRB 3 6 29.93 1013 10 16 0.00 0.00
4:53 pm 16:53 Sunny 87 30.6 75 23.9 67 67 VRB 6 9 29.93 1014 10 16 0.00 0.00
6:53 pm 18:53 Sunny 88 31.1 73 22.8 61 61 VRB 6 9 29.91 1013 10 16 0.00 0.00
7:53 pm 19:53 Sunny 87 30.6 72 22.2 61 61 VRB 3 6 29.90 1013 10 16 0.00 0.00
8:53 pm 20:53 Sunny 84 28.9 72 22.2 67 67 VRB 3 6 29.88 1012 10 16 0.00 0.00
9:53 pm 21:53 Clear 80 26.7 73 22.8 79 79 Calm 29.89 1012 10 16 0.00 0.00
10:53 pm 22:53 Clear 77 25 73 22.8 88 88 Calm 29.90 1012 10 16 0.00 0.00
11:53 pm 23:53 Clear 76 24.4 73 22.8 91 91 Calm 29.90 1012 10 16 0.00 0.00

Powered by AerisWeather